Home   Weather   Mulhouse   Past weeks

Flag for France Past Weather in Mulhouse, Alsace, France — Yesterday and Last 2 Weeks

Now
79 °F

Sunny.


Feels Like: 79 °F
Forecast: 52 / 78 °F
Wind: 2 mph from North

Location: Bale-Mulhouse

Current Time: May 22, 2017 at 7:17:33 pm

Latest Report: May 22, 2017 at 6:30 pm


Visibility: 10 mi

Pressure: 30.01 "Hg

Humidity: 42%

Dew Point: 54 °F

Location of MulhouseLocation

Past Weather in Mulhouse — Graph

°F

Mulhouse Temperature Yesterday

Maximum temperature yesterday: 72 °F (at 4:30 pm)
Minimum temperature yesterday: 41 °F (at 5:00 am)
Average temperature yesterday: 57 °F

High & Low Weather Summary for the Past Weeks

 TemperatureHumidityPressure
High84 °F (May 17, 5:00 pm)100% (May 8, 9:30 pm)30.42 "Hg (May 8, 9:30 pm)
Low36 °F (May 10, 5:30 am)30% (May 16, 4:30 pm)29.47 "Hg (May 11, 4:30 pm)
Average58 °F74%30.03 "Hg
* Reported May 7 6:00 pm — May 22 6:00 pm, Mulhouse. Weather by CustomWeather, © 2017

Note: Actual official high and low records may vary slightly from our data, if they occured in-between our weather recording intervals... More about our weather records

Advertising

Mulhouse Weather History for the Previous 24 Hours

Scroll right to see more
 ConditionsComfort  
Time TempWeatherWind HumidityBarometerVisibility
6:00 pm
Mon, May 22
79 °FSunny.3 mph37%30.01 "Hg10 mi
5:43 pm79 °FPassing clouds.5 mph39%30.01 "HgN/A
5:30 pm79 °FSunny.3 mph39%30.01 "Hg10 mi
5:00 pm77 °FSunny.3 mph39%30.01 "Hg10 mi
4:30 pm77 °FPassing clouds.6 mph42%30.01 "HgN/A
4:00 pm77 °FSunny.5 mph42%30.04 "Hg10 mi
3:00 pm75 °FPassing clouds.6 mph44%30.04 "HgN/A
2:30 pm75 °FPassing clouds.5 mph39%30.04 "HgN/A
2:00 pm73 °FSunny.5 mph44%30.07 "Hg10 mi
1:30 pm73 °FPassing clouds.5 mph41%30.07 "HgN/A
1:00 pm73 °FSunny.2 mph44%30.07 "Hg10 mi
12:30 pm72 °FPassing clouds.3 mph47%30.07 "HgN/A
12:00 pm70 °FScattered clouds.3 mph53%30.07 "HgN/A
11:38 am70 °FScattered clouds.2 mph50%30.09 "HgN/A
11:00 am68 °FPassing clouds.3 mph53%30.09 "HgN/A
10:30 am66 °FSunny.3 mph56%30.09 "Hg10 mi
10:00 am64 °FSunny.1 mph60%30.09 "Hg10 mi
9:30 am63 °FSunny.2 mph59%30.09 "Hg10 mi
9:00 am61 °FSunny.1 mph63%30.09 "Hg10 mi
8:30 am57 °FSunny.1 mph72%30.09 "Hg10 mi
8:00 am54 °FSunny.1 mph82%30.09 "Hg10 mi
7:30 am52 °FSunny.3 mph88%30.09 "Hg10 mi
7:00 am48 °FSunny.2 mph100%30.09 "Hg10 mi
6:30 am46 °FSunny.2 mph100%30.09 "Hg10 mi
6:00 am45 °FFog.1 mph100%30.09 "HgN/A
5:30 am45 °FFog.No wind100%30.09 "HgN/A
5:00 am45 °FFog.No wind93%30.09 "HgN/A
4:30 am46 °FClear.No wind93%30.09 "Hg10 mi
4:00 am46 °FClear.1 mph93%30.09 "Hg10 mi
3:30 am46 °FClear.1 mph93%30.09 "Hg10 mi
3:00 am46 °FClear.1 mph93%30.09 "Hg10 mi
2:30 am48 °FClear.2 mph87%30.12 "Hg10 mi
2:00 am48 °FClear.2 mph94%30.12 "Hg10 mi
1:30 am50 °FClear.1 mph94%30.12 "Hg10 mi
1:00 am50 °FClear.3 mph88%30.12 "Hg10 mi
12:30 am52 °FClear.2 mph88%30.12 "Hg10 mi
12:00 am52 °FClear.3 mph88%30.12 "Hg10 mi
11:30 pm
Sun, May 21
54 °FClear.2 mph82%30.12 "Hg10 mi
11:00 pm55 °FClear.No wind77%30.12 "Hg10 mi
10:30 pm57 °FClear.2 mph77%30.15 "Hg10 mi
10:00 pm57 °FClear.5 mph67%30.15 "Hg10 mi
9:30 pm61 °FClear.3 mph68%30.15 "Hg10 mi
9:00 pm64 °FSunny.3 mph56%30.15 "Hg10 mi
8:30 pm68 °FScattered clouds.5 mph49%30.15 "HgN/A
8:00 pm68 °FScattered clouds.7 mph49%30.15 "HgN/A
7:30 pm70 °FScattered clouds.6 mph50%30.15 "HgN/A
7:00 pm70 °FScattered clouds.8 mph46%30.15 "HgN/A
Weather by CustomWeather, © 2017

See weather overviewHow to use our weather pages